Retour au catalogue

STARLINK-32527

ActifCommunicationsVLEO
NORAD 62319·PAYLOAD·🇺🇸 United States

Lancé Dec 13, 2024 depuis Vandenberg Space Force Base

Loading…

Prochains Passages (prochaines 24 heures)

TLE

FraisSource: CelesTrak SupGP

Époque: Sep 14, 2026, 22:51 UTC

1 62319C 24239U   26257.95256944 -.00011225  00000+0 -36101-3 0  2570
2 62319  53.1585  20.6962 0001280  75.1839 141.0904 15.31703248    13

Suivez STARLINK-32527 en temps réel avec AllMySat

Download on the App Store